星链-35794(STARLINK-35794)

导读

STARLINK-35827是美国SpaceX星链星座的卫星,于2025年11月6日发射入轨,属于星链互联网卫星项目的组网卫星。星链项目旨在构建全球覆盖的低轨卫星互联网星座,该卫星加入后进一步扩充了星座规模,助力提升星座的通信覆盖能力与服务稳定性,为全球偏远地区、海洋等场景提供宽带互联服务。

基本信息
目录编号:
66365
目录名称:
STARLINK-35827
国际标识:
2025-254T
轨道中心:
EARTH
卫星名称:
星链-35794
卫星全名:
星链-35794(STARLINK-35794)
卫星状态:
在轨 (已飞行219 天)
发射日期:
2025-11-06 UTC
国别 :
美国 (US)
星等 :
--
轨道信息
数据来源 国际轨道数据 AOE轨道数据
星历时间 2026-06-12T13:36:29+0800
1天前
查看轨道信息
2026-06-09T00:00:00+0800
4天前
查看轨道信息
半长轴 6848.826km 6848.592km
偏心率 0.0001209 0.0001398
轨道倾角 53.159° 53.158°
近地点辐角 61.813° 112.038°
升交点赤经 153.102° 169.711°
平近点角 298.299° 8.330°
近地点 469.86km 469.497km
远地点 471.518km 471.413km
周期 94.012分钟 94.007分钟
每日圈数 15.317174 15.317958
详细信息
固有亮度:
5
最大亮度:
2.5
卫星平台:
Starlink V1.0
覆盖范围:
全球
运营商:
太空探索技术公司
运营商所在国:
美国
制造商(研发单位):
太空探索技术公司
制造商所在国:
美国
使用方式:
暂无
卫星简介
Starlink 计划是 SpaceX 推出的全球卫星互联网项目,通过发射低轨道卫星,为全球尤其是偏远地区提供高速、低延迟的互联网服务。自 2019 年起,Starlink 已部署数千颗卫星,旨在缩小全球数字鸿沟,推动互联网普及。该项目还为军事、航空等行业提供通信支持,带来广泛经济效益。
2D轨道图
3D轨道图
轨道高度分析图
轨道倾角分析图
轨道综合分析图
查看轨道综合分析图